• In Netherlands
  • List of Countries
  • For 7 days
  • Water Temperature
  • Satellite Maps
  • Weather Map
  • Weather Widgets
  • user-avatar
    Login

    Hourly Weather Trinidad

    Today, 24 September, Sunday

    Time Temperature Precipitation Wind Pressure Humidity
    00:00 +29°C° 0 mm 2 mps 746 mmHg 37%
    01:00 +28°C° 0 mm 2 mps 746 mmHg 39%
    02:00 +27°C° 0 mm 2 mps 746 mmHg 41%
    03:00 +26°C° 0 mm 2 mps 746 mmHg 42%
    04:00 +26°C° 0 mm 2 mps 746 mmHg 43%
    05:00 +25°C° 0 mm 2 mps 746 mmHg 45%
    06:00 +26°C° 0 mm 2 mps 746 mmHg 43%
    07:00 +27°C° 0 mm 2 mps 746 mmHg 41%
    08:00 +28°C° 0 mm 2 mps 746 mmHg 38%
    09:00 +31°C° 0 mm 2 mps 746 mmHg 33%
    10:00 +36°C° 0 mm 2 mps 746 mmHg 28%
    11:00 +39°C° 0 mm 2 mps 746 mmHg 23%
    12:00 +40°C° 0 mm 1 mps 745 mmHg 22%
    13:00 +42°C° 0 mm 1 mps 744 mmHg 20%
    14:00 +44°C° 0 mm 1 mps 743 mmHg 18%
    15:00 +43°C° 0 mm 1 mps 742 mmHg 19%
    16:00 +42°C° 0 mm 1 mps 741 mmHg 20%
    17:00 +41°C° 0 mm 1 mps 741 mmHg 21%
    18:00 +37°C° 0 mm 1 mps 741 mmHg 25%
    19:00 +35°C° 0 mm 1 mps 741 mmHg 29%
    20:00 +33°C° 0 mm 1 mps 742 mmHg 32%
    21:00 +33°C° 0 mm 1 mps 742 mmHg 34%
    22:00 +32°C° 0 mm 1 mps 743 mmHg 35%
    23:00 +31°C° 0 mm 1 mps 743 mmHg 37%

    Tomorrow, 25 September, Monday

    Time Temperature Precipitation Wind Pressure Humidity
    00:00 +31°C° 0 mm 1 mps 743 mmHg 37%
    01:00 +31°C° 0 mm 1 mps 743 mmHg 38%
    02:00 +31°C° 0 mm 1 mps 742 mmHg 39%
    03:00 +30°C° 0 mm 1 mps 742 mmHg 40%
    04:00 +30°C° 0 mm 1 mps 742 mmHg 41%
    05:00 +27°C° 0 mm 0 mps 742 mmHg 42%
    06:00 +29°C° 0 mm 0 mps 743 mmHg 39%
    07:00 +31°C° 0 mm 0 mps 744 mmHg 36%
    08:00 +32°C° 0 mm 0 mps 744 mmHg 33%
    09:00 +36°C° 0 mm 0 mps 744 mmHg 29%
    10:00 +39°C° 0 mm 0 mps 745 mmHg 24%
    11:00 +43°C° 0 mm 0 mps 745 mmHg 19%
    12:00 +45°C° 0 mm 1 mps 744 mmHg 20%
    13:00 +44°C° 0 mm 1 mps 743 mmHg 21%
    14:00 +43°C° 0 mm 2 mps 742 mmHg 21%
    15:00 +42°C° 0 mm 2 mps 741 mmHg 23%
    16:00 +41°C° 0 mm 2 mps 741 mmHg 25%
    17:00 +40°C° 0 mm 2 mps 741 mmHg 27%
    18:00 +38°C° 0.3 mm 2 mps 741 mmHg 33%
    19:00 +34°C° 0.3 mm 1 mps 741 mmHg 39%
    20:00 +32°C° 0.3 mm 1 mps 742 mmHg 46%
    21:00 +31°C° 0.4 mm 1 mps 742 mmHg 51%
    22:00 +30°C° 0.4 mm 1 mps 742 mmHg 57%
    23:00 +29°C° 0.4 mm 1 mps 743 mmHg 63%

    Day after tomorrow, 26 September, Tuesday

    Time Temperature Precipitation Wind Pressure Humidity
    00:00 +28°C° 0.6 mm 1 mps 743 mmHg 68%
    01:00 +27°C° 0.6 mm 2 mps 742 mmHg 72%
    02:00 +26°C° 0.6 mm 2 mps 742 mmHg 77%
    03:00 +26°C° 0.2 mm 2 mps 742 mmHg 78%
    04:00 +26°C° 0.2 mm 2 mps 742 mmHg 79%
    05:00 +25°C° 0.2 mm 2 mps 742 mmHg 80%
    06:00 +26°C° 0.3 mm 2 mps 743 mmHg 77%
    07:00 +27°C° 0.3 mm 2 mps 744 mmHg 75%
    08:00 +28°C° 0.3 mm 2 mps 745 mmHg 72%
    09:00 +31°C° 0 mm 2 mps 745 mmHg 61%
    10:00 +34°C° 0 mm 1 mps 745 mmHg 49%
    11:00 +37°C° 0 mm 1 mps 745 mmHg 38%
    12:00 +39°C° 0 mm 1 mps 744 mmHg 34%
    13:00 +40°C° 0 mm 2 mps 743 mmHg 31%
    14:00 +41°C° 0 mm 2 mps 742 mmHg 27%
    15:00 +40°C° 0 mm 2 mps 741 mmHg 29%
    16:00 +39°C° 0 mm 1 mps 740 mmHg 30%
    17:00 +37°C° 0 mm 1 mps 740 mmHg 32%
    18:00 +35°C° 0 mm 1 mps 740 mmHg 36%
    19:00 +34°C° 0 mm 1 mps 740 mmHg 41%
    20:00 +32°C° 0 mm 1 mps 740 mmHg 46%
    21:00 +31°C° 0 mm 1 mps 741 mmHg 48%
    22:00 +30°C° 0 mm 1 mps 741 mmHg 50%
    23:00 +30°C° 0 mm 1 mps 742 mmHg 52%

    27 September, Wednesday

    Time Temperature Precipitation Wind Pressure Humidity
    00:00 +29°C° 0.2 mm 1 mps 741 mmHg 57%
    01:00 +28°C° 0.2 mm 1 mps 741 mmHg 62%
    02:00 +27°C° 0.2 mm 1 mps 741 mmHg 67%
    03:00 +26°C° 0.2 mm 1 mps 741 mmHg 71%
    04:00 +26°C° 0.2 mm 1 mps 741 mmHg 74%
    05:00 +25°C° 0.2 mm 1 mps 741 mmHg 78%
    06:00 +26°C° 0.3 mm 1 mps 742 mmHg 74%
    07:00 +28°C° 0.3 mm 1 mps 743 mmHg 70%
    08:00 +29°C° 0.3 mm 1 mps 744 mmHg 66%
    09:00 +32°C° 0 mm 1 mps 744 mmHg 56%
    10:00 +34°C° 0 mm 1 mps 744 mmHg 47%
    11:00 +38°C° 0 mm 2 mps 744 mmHg 37%
    12:00 +38°C° 0 mm 2 mps 743 mmHg 36%
    13:00 +39°C° 0 mm 2 mps 742 mmHg 34%
    14:00 +39°C° 0 mm 2 mps 741 mmHg 33%
    15:00 +38°C° 0 mm 2 mps 741 mmHg 35%
    16:00 +37°C° 0 mm 2 mps 741 mmHg 38%
    17:00 +36°C° 0 mm 2 mps 741 mmHg 41%
    18:00 +33°C° 0.2 mm 1 mps 741 mmHg 48%
    19:00 +32°C° 0.2 mm 1 mps 741 mmHg 54%
    20:00 +30°C° 0.2 mm 1 mps 741 mmHg 61%
    21:00 +29°C° 0 mm 1 mps 742 mmHg 62%
    22:00 +29°C° 0 mm 1 mps 742 mmHg 63%
    23:00 +29°C° 0 mm 1 mps 742 mmHg 64%

    28 September, Thursday

    Time Temperature Precipitation Wind Pressure Humidity
    00:00 +28°C° 0.5 mm 1 mps 742 mmHg 67%
    01:00 +27°C° 0.5 mm 1 mps 741 mmHg 71%
    02:00 +27°C° 0.5 mm 1 mps 741 mmHg 75%
    03:00 +26°C° 0.3 mm 1 mps 741 mmHg 77%
    04:00 +26°C° 0.3 mm 1 mps 742 mmHg 80%
    05:00 +25°C° 0.3 mm 1 mps 742 mmHg 82%
    06:00 +26°C° 0.1 mm 1 mps 743 mmHg 80%
    07:00 +27°C° 0.1 mm 1 mps 744 mmHg 77%
    08:00 +28°C° 0.1 mm 1 mps 745 mmHg 75%
    09:00 +30°C° 0.2 mm 1 mps 745 mmHg 68%
    10:00 +31°C° 0.2 mm 1 mps 745 mmHg 60%
    11:00 +33°C° 0.2 mm 1 mps 745 mmHg 53%
    12:00 +33°C° 2.2 mm 1 mps 745 mmHg 54%
    13:00 +34°C° 2.2 mm 2 mps 744 mmHg 55%
    14:00 +34°C° 2.2 mm 2 mps 743 mmHg 56%
    15:00 +34°C° 0.7 mm 2 mps 743 mmHg 55%
    16:00 +34°C° 0.7 mm 2 mps 742 mmHg 54%
    17:00 +34°C° 0.7 mm 2 mps 742 mmHg 54%
    18:00 +31°C° 0 mm 1 mps 742 mmHg 60%
    19:00 +30°C° 0 mm 1 mps 742 mmHg 65%
    20:00 +28°C° 0 mm 1 mps 743 mmHg 71%
    21:00 +28°C° 0 mm 1 mps 743 mmHg 73%
    22:00 +27°C° 0 mm 1 mps 743 mmHg 75%
    23:00 +25°C° 0 mm 0 mps 743 mmHg 77%

    29 September, Friday

    Time Temperature Precipitation Wind Pressure Humidity
    00:00 +24°C° 0 mm 0 mps 743 mmHg 78%
    01:00 +24°C° 0 mm 0 mps 743 mmHg 79%
    02:00 +24°C° 0 mm 0 mps 742 mmHg 81%
    03:00 +23°C° 0 mm 0 mps 742 mmHg 81%
    04:00 +23°C° 0 mm 0 mps 743 mmHg 82%
    05:00 +23°C° 0 mm 0 mps 743 mmHg 83%
    06:00 +24°C° 0.2 mm 0 mps 744 mmHg 79%
    07:00 +25°C° 0.2 mm 0 mps 745 mmHg 75%
    08:00 +28°C° 0.2 mm 1 mps 745 mmHg 71%
    09:00 +31°C° 0 mm 1 mps 745 mmHg 61%
    10:00 +34°C° 0 mm 1 mps 745 mmHg 50%
    11:00 +37°C° 0 mm 1 mps 745 mmHg 40%
    12:00 +37°C° 0 mm 1 mps 744 mmHg 38%
    13:00 +39°C° 0 mm 1 mps 743 mmHg 36%
    14:00 +39°C° 0 mm 2 mps 742 mmHg 35%
    15:00 +37°C° 0 mm 1 mps 741 mmHg 36%
    16:00 +37°C° 0 mm 1 mps 741 mmHg 37%
    17:00 +36°C° 0 mm 1 mps 741 mmHg 39%
    18:00 +35°C° 0 mm 1 mps 741 mmHg 43%
    19:00 +33°C° 0 mm 1 mps 742 mmHg 47%
    20:00 +32°C° 0 mm 1 mps 742 mmHg 51%
    21:00 +31°C° 0.1 mm 1 mps 742 mmHg 55%
    22:00 +30°C° 0.1 mm 1 mps 742 mmHg 59%
    23:00 +29°C° 0.1 mm 1 mps 742 mmHg 62%
    Show more